Time,TemperatureF,DewpointF,PressureIn,WindDirection,WindDirectionDegrees,WindSpeedMPH,WindSpeedGustMPH,Humidity,HourlyPrecipIn,Conditions,Clouds,dailyrainin,SolarRadiationWatts/m^2,SoftwareType,DateUTC
2013-02-05 00:12:00,1.0,-3.0,-100.00,WNW,288,0.0,3.0,82,0.00,,,0.00,0.000000,,2013-02-05 05:12:00,
2013-02-05 00:22:00,1.0,-3.0,-100.00,WNW,288,0.0,3.0,82,0.00,,,0.00,0.000000,,2013-02-05 05:22:00,
2013-02-05 00:32:00,1.0,-3.0,-100.00,WNW,288,0.0,3.0,82,0.00,,,0.00,0.000000,,2013-02-05 05:32:00,
2013-02-05 00:42:00,1.0,-3.0,-100.00,WNW,288,0.0,3.0,82,0.00,,,0.00,0.000000,,2013-02-05 05:42:00,
2013-02-05 01:11:00,0.0,-5.0,-100.00,West,273,0.0,0.0,80,0.00,,,-99.99,0.000000,,2013-02-05 06:11:00,
2013-02-05 01:22:00,0.0,-5.0,-100.00,West,273,0.0,0.0,80,0.00,,,-99.99,0.000000,,2013-02-05 06:22:00,
2013-02-05 01:32:00,0.0,-5.0,-100.00,West,273,0.0,0.0,80,0.00,,,-99.99,0.000000,,2013-02-05 06:32:00,
2013-02-05 01:42:00,0.0,-5.0,-100.00,West,273,0.0,0.0,80,0.00,,,-99.99,0.000000,,2013-02-05 06:42:00,
2013-02-05 02:11:00,-1.0,-6.0,-100.00,NW,324,0.0,2.0,80,0.00,,,-99.99,0.000000,,2013-02-05 07:11:00,
2013-02-05 02:22:00,-1.0,-6.0,-100.00,NW,324,0.0,2.0,80,0.00,,,-99.99,0.000000,,2013-02-05 07:22:00,
2013-02-05 02:32:00,-1.0,-6.0,-100.00,NW,324,0.0,2.0,80,0.00,,,-99.99,0.000000,,2013-02-05 07:32:00,
2013-02-05 02:42:00,-1.0,-6.0,-100.00,NW,324,0.0,2.0,80,0.00,,,-99.99,0.000000,,2013-02-05 07:42:00,
2013-02-05 03:11:00,-2.0,-7.0,-100.00,North,351,0.0,0.0,79,0.00,,,0.00,0.000000,,2013-02-05 08:11:00,
2013-02-05 03:22:00,-2.0,-7.0,-100.00,North,351,0.0,0.0,79,0.00,,,0.00,0.000000,,2013-02-05 08:22:00,
2013-02-05 03:32:00,-2.0,-7.0,-100.00,North,351,0.0,0.0,79,0.00,,,0.00,0.000000,,2013-02-05 08:32:00,
2013-02-05 03:42:00,-2.0,-7.0,-100.00,North,351,0.0,0.0,79,0.00,,,0.00,0.000000,,2013-02-05 08:42:00,
2013-02-05 04:12:00,-3.0,-9.0,-100.00,WNW,282,0.0,2.0,76,0.00,,,0.00,0.000000,,2013-02-05 09:12:00,
2013-02-05 04:22:00,-3.0,-9.0,-100.00,WNW,282,0.0,2.0,76,0.00,,,0.00,0.000000,,2013-02-05 09:22:00,
2013-02-05 04:32:00,-3.0,-9.0,-100.00,WNW,282,0.0,2.0,76,0.00,,,0.00,0.000000,,2013-02-05 09:32:00,
2013-02-05 04:42:00,-3.0,-9.0,-100.00,WNW,282,0.0,2.0,76,0.00,,,0.00,0.000000,,2013-02-05 09:42:00,
2013-02-05 05:11:00,-4.0,-9.0,-100.00,WNW,284,0.0,0.0,77,0.00,,,0.00,0.000000,,2013-02-05 10:11:00,
2013-02-05 05:21:00,-4.0,-9.0,-100.00,WNW,284,0.0,0.0,77,0.00,,,0.00,0.000000,,2013-02-05 10:21:00,
2013-02-05 05:32:00,-4.0,-9.0,-100.00,WNW,284,0.0,0.0,77,0.00,,,0.00,0.000000,,2013-02-05 10:32:00,
2013-02-05 05:42:00,-4.0,-9.0,-100.00,WNW,284,0.0,0.0,77,0.00,,,0.00,0.000000,,2013-02-05 10:42:00,
2013-02-05 06:11:00,-4.0,-9.0,-100.00,West,272,0.0,0.0,77,0.00,,,0.00,0.000000,,2013-02-05 11:11:00,
2013-02-05 06:22:00,-4.0,-9.0,-100.00,West,272,0.0,0.0,77,0.00,,,0.00,0.000000,,2013-02-05 11:22:00,
2013-02-05 06:32:00,-4.0,-9.0,-100.00,West,272,0.0,0.0,77,0.00,,,0.00,0.000000,,2013-02-05 11:32:00,
2013-02-05 06:42:00,-4.0,-9.0,-100.00,West,272,0.0,0.0,77,0.00,,,0.00,0.000000,,2013-02-05 11:42:00,
2013-02-05 07:12:00,-3.0,-8.0,-100.00,NNE,28,0.0,0.0,78,0.00,,,0.00,0.000000,,2013-02-05 12:12:00,
2013-02-05 07:22:00,-3.0,-8.0,-100.00,NNE,28,0.0,0.0,78,0.00,,,0.00,0.000000,,2013-02-05 12:22:00,
2013-02-05 07:32:00,-3.0,-8.0,-100.00,NNE,28,0.0,0.0,78,0.00,,,0.00,0.000000,,2013-02-05 12:32:00,
2013-02-05 07:42:00,-3.0,-8.0,-100.00,NNE,28,0.0,0.0,78,0.00,,,0.00,0.000000,,2013-02-05 12:42:00,
2013-02-05 08:12:00,2.0,-2.0,-100.00,West,259,1.0,2.0,81,0.00,,,0.00,1.000000,,2013-02-05 13:12:00,
2013-02-05 08:22:00,2.0,-2.0,-100.00,West,259,1.0,2.0,81,0.00,,,0.00,1.000000,,2013-02-05 13:22:00,
2013-02-05 08:32:00,2.0,-2.0,-100.00,West,259,1.0,2.0,81,0.00,,,0.00,1.000000,,2013-02-05 13:32:00,
2013-02-05 08:42:00,2.0,-2.0,-100.00,West,259,1.0,2.0,81,0.00,,,0.00,1.000000,,2013-02-05 13:42:00,
2013-02-05 09:12:00,9.0,3.0,-100.00,SW,216,3.0,5.0,75,0.00,,,0.00,13.000000,,2013-02-05 14:12:00,
2013-02-05 09:22:00,9.0,3.0,-100.00,SW,216,3.0,5.0,75,0.00,,,0.00,13.000000,,2013-02-05 14:22:00,
2013-02-05 09:32:00,9.0,3.0,-100.00,SW,216,3.0,5.0,75,0.00,,,0.00,13.000000,,2013-02-05 14:32:00,
2013-02-05 09:42:00,9.0,3.0,-100.00,SW,216,3.0,5.0,75,0.00,,,0.00,13.000000,,2013-02-05 14:42:00,
2013-02-05 10:11:00,11.0,6.0,-100.00,SSW,193,6.0,9.0,79,0.00,,,0.00,46.000000,,2013-02-05 15:11:00,
2013-02-05 10:22:00,11.0,6.0,-100.00,SSW,193,6.0,9.0,79,0.00,,,0.00,46.000000,,2013-02-05 15:22:00,
2013-02-05 10:32:00,11.0,6.0,-100.00,SSW,193,6.0,9.0,79,0.00,,,0.00,46.000000,,2013-02-05 15:32:00,
2013-02-05 10:42:00,11.0,6.0,-100.00,SSW,193,6.0,9.0,79,0.00,,,0.00,46.000000,,2013-02-05 15:42:00,
2013-02-05 11:12:00,14.0,6.0,-100.00,SSW,204,7.0,13.0,69,0.00,,,0.00,82.000000,,2013-02-05 16:12:00,
2013-02-05 11:22:00,14.0,6.0,-100.00,SSW,204,7.0,13.0,69,0.00,,,0.00,82.000000,,2013-02-05 16:22:00,
2013-02-05 11:32:00,14.0,6.0,-100.00,SSW,204,7.0,13.0,69,0.00,,,0.00,82.000000,,2013-02-05 16:32:00,
2013-02-05 11:42:00,14.0,6.0,-100.00,SSW,204,7.0,13.0,69,0.00,,,0.00,82.000000,,2013-02-05 16:42:00,
2013-02-05 12:12:00,15.0,9.0,-100.00,SSW,199,7.0,12.0,75,0.00,,,-99.99,91.000000,,2013-02-05 17:12:00,
2013-02-05 12:22:00,15.0,9.0,-100.00,SSW,199,7.0,12.0,75,0.00,,,-99.99,91.000000,,2013-02-05 17:22:00,
2013-02-05 12:32:00,15.0,9.0,-100.00,SSW,199,7.0,12.0,75,0.00,,,-99.99,91.000000,,2013-02-05 17:32:00,
2013-02-05 12:42:00,15.0,9.0,-100.00,SSW,199,7.0,12.0,75,0.00,,,-99.99,91.000000,,2013-02-05 17:42:00,
2013-02-05 13:11:00,16.0,10.0,-100.00,SSW,196,8.0,13.0,76,0.00,,,-99.99,111.000000,,2013-02-05 18:11:00,
2013-02-05 13:22:00,16.0,10.0,-100.00,SSW,196,8.0,13.0,76,0.00,,,-99.99,111.000000,,2013-02-05 18:22:00,
2013-02-05 13:32:00,16.0,10.0,-100.00,SSW,196,8.0,13.0,76,0.00,,,-99.99,111.000000,,2013-02-05 18:32:00,
2013-02-05 13:42:00,16.0,10.0,-100.00,SSW,196,8.0,13.0,76,0.00,,,-99.99,111.000000,,2013-02-05 18:42:00,
2013-02-05 14:11:00,17.0,12.0,-100.00,SSW,195,8.0,15.0,82,0.00,,,0.00,102.000000,,2013-02-05 19:11:00,
2013-02-05 14:22:00,17.0,12.0,-100.00,SSW,195,8.0,15.0,82,0.00,,,0.00,102.000000,,2013-02-05 19:22:00,
2013-02-05 14:32:00,17.0,12.0,-100.00,SSW,195,8.0,15.0,82,0.00,,,0.00,102.000000,,2013-02-05 19:32:00,
2013-02-05 14:42:00,17.0,12.0,-100.00,SSW,195,8.0,15.0,82,0.00,,,0.00,102.000000,,2013-02-05 19:42:00,
2013-02-05 15:11:00,18.0,13.0,-100.00,SSW,200,11.0,19.0,80,0.00,,,0.00,154.000000,,2013-02-05 20:11:00,
2013-02-05 15:22:00,18.0,13.0,-100.00,SSW,200,11.0,19.0,80,0.00,,,0.00,154.000000,,2013-02-05 20:22:00,
2013-02-05 15:32:00,18.0,13.0,-100.00,SSW,200,11.0,19.0,80,0.00,,,0.00,154.000000,,2013-02-05 20:32:00,
2013-02-05 15:42:00,18.0,13.0,-100.00,SSW,200,11.0,19.0,80,0.00,,,0.00,154.000000,,2013-02-05 20:42:00,
2013-02-05 16:11:00,19.0,14.0,-100.00,SSW,209,7.0,16.0,82,0.00,,,0.00,73.000000,,2013-02-05 21:11:00,
2013-02-05 16:22:00,19.0,14.0,-100.00,SSW,209,7.0,16.0,82,0.00,,,0.00,73.000000,,2013-02-05 21:22:00,
2013-02-05 16:32:00,19.0,14.0,-100.00,SSW,209,7.0,16.0,82,0.00,,,0.00,73.000000,,2013-02-05 21:32:00,
2013-02-05 16:42:00,19.0,14.0,-100.00,SSW,209,7.0,16.0,82,0.00,,,0.00,73.000000,,2013-02-05 21:42:00,
2013-02-05 17:12:00,19.0,15.0,-100.00,SW,220,6.0,14.0,84,0.00,,,0.00,42.000000,,2013-02-05 22:12:00,
2013-02-05 17:22:00,19.0,15.0,-100.00,SW,220,6.0,14.0,84,0.00,,,0.00,42.000000,,2013-02-05 22:22:00,
2013-02-05 17:32:00,19.0,15.0,-100.00,SW,220,6.0,14.0,84,0.00,,,0.00,42.000000,,2013-02-05 22:32:00,
2013-02-05 17:42:00,19.0,15.0,-100.00,SW,220,6.0,14.0,84,0.00,,,0.00,42.000000,,2013-02-05 22:42:00,
2013-02-05 18:11:00,20.0,16.0,-100.00,SW,234,5.0,9.0,84,0.00,,,0.00,9.000000,,2013-02-05 23:11:00,
2013-02-05 18:22:00,20.0,16.0,-100.00,SW,234,5.0,9.0,84,0.00,,,0.00,9.000000,,2013-02-05 23:22:00,
2013-02-05 18:32:00,20.0,16.0,-100.00,SW,234,5.0,9.0,84,0.00,,,0.00,9.000000,,2013-02-05 23:32:00,
2013-02-05 18:42:00,20.0,16.0,-100.00,SW,234,5.0,9.0,84,0.00,,,0.00,9.000000,,2013-02-05 23:42:00,
2013-02-05 19:12:00,21.0,17.0,-100.00,WSW,247,5.0,8.0,86,0.00,,,0.00,1.000000,,2013-02-06 00:12:00,
2013-02-05 19:22:00,21.0,17.0,-100.00,WSW,247,5.0,8.0,86,0.00,,,0.00,1.000000,,2013-02-06 00:22:00,
2013-02-05 19:32:00,21.0,17.0,-100.00,WSW,247,5.0,8.0,86,0.00,,,0.00,1.000000,,2013-02-06 00:32:00,
2013-02-05 19:42:00,21.0,17.0,-100.00,WSW,247,5.0,8.0,86,0.00,,,0.00,1.000000,,2013-02-06 00:42:00,
2013-02-05 20:12:00,20.0,12.0,-100.00,NW,304,8.0,20.0,72,0.00,,,0.00,1.000000,,2013-02-06 01:12:00,
2013-02-05 20:22:00,20.0,12.0,-100.00,NW,304,8.0,20.0,72,0.00,,,0.00,1.000000,,2013-02-06 01:22:00,
2013-02-05 20:32:00,20.0,12.0,-100.00,NW,304,8.0,20.0,72,0.00,,,0.00,1.000000,,2013-02-06 01:32:00,
2013-02-05 20:42:00,20.0,12.0,-100.00,NW,304,8.0,20.0,72,0.00,,,0.00,1.000000,,2013-02-06 01:42:00,
2013-02-05 21:12:00,18.0,10.0,-100.00,NW,306,8.0,16.0,70,0.00,,,0.00,0.000000,,2013-02-06 02:12:00,
2013-02-05 21:22:00,18.0,10.0,-100.00,NW,306,8.0,16.0,70,0.00,,,0.00,0.000000,,2013-02-06 02:22:00,
2013-02-05 21:32:00,18.0,10.0,-100.00,NW,306,8.0,16.0,70,0.00,,,0.00,0.000000,,2013-02-06 02:32:00,
2013-02-05 21:42:00,18.0,10.0,-100.00,NW,306,8.0,16.0,70,0.00,,,0.00,0.000000,,2013-02-06 02:42:00,
2013-02-05 22:12:00,19.0,12.0,-100.00,WNW,297,7.0,13.0,73,0.00,,,0.00,0.000000,,2013-02-06 03:12:00,
2013-02-05 22:22:00,19.0,12.0,-100.00,WNW,297,7.0,13.0,73,0.00,,,0.00,0.000000,,2013-02-06 03:22:00,
2013-02-05 22:32:00,19.0,12.0,-100.00,WNW,297,7.0,13.0,73,0.00,,,0.00,0.000000,,2013-02-06 03:32:00,
2013-02-05 22:42:00,19.0,12.0,-100.00,WNW,297,7.0,13.0,73,0.00,,,0.00,0.000000,,2013-02-06 03:42:00,
2013-02-05 23:11:00,19.0,11.0,-100.00,NW,317,7.0,17.0,71,0.00,,,0.00,0.000000,,2013-02-06 04:11:00,
2013-02-05 23:22:00,19.0,11.0,-100.00,NW,317,7.0,17.0,71,0.00,,,0.00,0.000000,,2013-02-06 04:22:00,
2013-02-05 23:32:00,19.0,11.0,-100.00,NW,317,7.0,17.0,71,0.00,,,0.00,0.000000,,2013-02-06 04:32:00,
2013-02-05 23:42:00,19.0,11.0,-100.00,NW,317,7.0,17.0,71,0.00,,,0.00,0.000000,,2013-02-06 04:42:00,